AirNav   Everest Fuels
 
 1530 users online  

2J8 Pierson Municipal Airport
Pierson, Florida, USA

GOING TO PIERSON?


FAA INFORMATION EFFECTIVE 18 JUNE 2020

Location

FAA Identifier: 2J8
Lat/Long: 29-15-00.1000N 081-27-33.6000W
29-15.001667N 081-27.560000W
29.2500278,-81.4593333
(estimated)
Elevation: 63 ft. / 19.2 m (surveyed)
Variation: 03W (1985)
From city: 1 mile N of PIERSON, FL
Time zone: UTC -4 (UTC -5 during Standard Time)
Zip code: 32180

Airport Operations

Airport use: Open to the public
Activation date: 12/1946
Control tower: no
ARTCC: JACKSONVILLE CENTER
FSS: SAINT PETERSBURG FLIGHT SERVICE STATION
NOTAMs facility: PIE (NOTAM-D service available)
Attendance: UNATNDD
Wind indicator: yes
Segmented circle: no

Airport Communications

CTAF: 122.9
WX AWOS-3 at DED (14 nm SE): 119.575 (386-740-5811)
WX AWOS-3 at OMN (18 nm E): 118.475 (386-615-7084)
WX AWOS-3 at FIN (18 nm NE): 128.325 (386-437-7334)

Nearby radio navigation aids

VOR radial/distance  VOR name  Freq  Var
OMNr260/18.4ORMOND BEACH VORTAC112.6000E

Airport Services

Parking: tiedowns
Airframe service: MINOR
Powerplant service: MINOR
Bottled oxygen: NONE
Bulk oxygen: NONE

Runway Information

Runway 5/23

Dimensions: 2600 x 200 ft. / 792 x 61 m
Surface: turf, in fair condition
Runway edge markings: BNDRY MARKERS (SINGLE YELLOW CONES) EVERY 200'.
RUNWAY 5  RUNWAY 23
Latitude: 29-14.854565N29-15.149782N
Longitude: 081-27.737928W081-27.382840W
Elevation: 59.0 ft.55.0 ft.
Traffic pattern: leftright
Runway heading: 050 magnetic, 047 true230 magnetic, 227 true
Obstructions: 62 ft. pole, 1240 ft. from runway, 105 ft. left of centerline, 20:1 slope to clear
95 FT ANT 1900 FT FM RY END.
42 ft. trees, 830 ft. from runway, 62 ft. right of centerline, 20:1 slope to clear

Airport Ownership and Management from official FAA records

Ownership: Publicly-owned
Owner: TOWN OF PIERSON
106 NORTH CENTER STREET
PIERSON, FL 32180
Phone 904-749-2661
Manager: THOMAS LARRIVEE
305 NORTH CENTER ST.
PIERSON, FL 32180
Phone (386) 943-0094

Airport Operational Statistics

Aircraft based on the field: 21
Single engine airplanes: 12
Gliders airplanes: 9
    
Aircraft operations: avg 38/day *
71% transient general aviation
29% local general aviation
* for 12-month period ending 13 August 2018

Additional Remarks

30 FT TREES + OR - 110 FT FM CNTRLN FULL LENGTH RY 05/23.
FOR CD OR TO CNL IFR CTC DAB APCH AT 386-226-3939.

Instrument Procedures

There are no published instrument procedures at 2J8.

Some nearby airports with instrument procedures:

KDED - DeLand Municipal Airport-Sidney H Taylor Field (14 nm SE)
KOMN - Ormond Beach Municipal Airport (18 nm E)
KFIN - Flagler Executive Airport (18 nm NE)
KDAB - Daytona Beach International Airport (21 nm E)
X23 - Umatilla Municipal Airport (22 nm SW)
 
Loc | Ops | Rwys | IFR | FBO | Links
Com | Nav | Svcs | Stats | Notes
Area around 2J8 (Pierson Municipal Airport)
 
Road maps at: MapQuest Bing Google
 
Aerial photo
WARNING: Photo may not be current or correct
Aerial photo of 2J8 (Pierson Municipal Airport)
Do you have a better or more recent aerial photo of Pierson Municipal Airport that you would like to share? If so, please send us your photo.

 
Sectional chart

 
Airport distance calculator
Flying to Pierson Municipal Airport? Find the distance to fly.

From to 2J8

Sunrise and sunset
Times for 14-Jul-2020
 Local
(UTC-4)
 Zulu
(UTC)
Morning civil twilight06:1110:11
Sunrise06:3810:38
Sunset20:2600:26
Evening civil twilight20:5300:53

Current date and time
Zulu (UTC)  14-Jul-2020 19:25:01
Local (UTC-4)  14-Jul-2020 15:25:01
 
METAR
KDED 
14nm SE 
141855Z AUTO 24007KT 210V270 10SM SCT046 BKN060 35/23 A3000 RMK AO2 LTG DSNT N T03490233
KOMN 
18nm E 
141850Z 10005KT 7SM SCT046 31/27 A3001
KFIN 
18nm NE 
141850Z 08010KT 10SM SCT048 SCT060 33/25 A3000
KDAB 
21nm E 
141853Z 07007KT 10SM FEW046TCU SCT060 SCT085 32/27 A3000 RMK AO2 LTG DSNT N SLP157 TCU SE-S CB DSNT N NW T03170267
K28J 
27nm NW 
141855Z AUTO 31008KT 10SM SCT050 33/22 A2999 RMK AO2
TAF
KDAB 
21nm E 
141748Z 1418/1518 09007KT P6SM VCTS SCT030CB SCT250 TEMPO 1418/1420 3SM TSRA SCT030CB FM150000 20005KT P6SM SCT250 FM151400 32006KT P6SM SCT030 SCT250 FM151700 07007KT P6SM SCT035 SCT250
NOTAMs
Click for the latest NOTAMs
NOTAMs are issued by the DoD/FAA and will open in a separate window not controlled by AirNav.

 

 
 

Would you like to see your business listed on this page?

 If your business provides an interesting product or service to pilots, flight crews, aircraft, or users of the Pierson Municipal Airport, you should consider listing it here.  To start the listing process, click on the button below
 
Add a business
 

Other Pages about Pierson Municipal Airport

Update a link
 
Copyright © AirNav, LLC. All rights reserved. Privacy Policy  Contact